TimeEDT,TemperatureF,Dew PointF,Humidity,Sea Level PressureIn,VisibilityMPH,Wind Direction,Wind SpeedMPH,Gust SpeedMPH,PrecipitationIn,Events,Conditions,WindDirDegrees,DateUTC
12:56 AM,69.1,53.1,57,30.22,10.0,WSW,4.6,-,N/A,,Clear,240,2013-08-26 04:56:00
1:56 AM,68.0,54.0,61,30.22,10.0,West,4.6,-,N/A,,Clear,260,2013-08-26 05:56:00
2:56 AM,68.0,54.0,61,30.19,10.0,Calm,Calm,-,N/A,,Partly Cloudy,0,2013-08-26 06:56:00
3:56 AM,68.0,54.0,61,30.17,10.0,Variable,3.5,-,N/A,,Mostly Cloudy,0,2013-08-26 07:56:00
4:56 AM,68.0,54.0,61,30.17,10.0,Variable,3.5,-,N/A,,Clear,0,2013-08-26 08:56:00
5:56 AM,66.9,55.0,66,30.16,10.0,WSW,3.5,-,N/A,,Partly Cloudy,250,2013-08-26 09:56:00
6:56 AM,66.9,54.0,63,30.16,10.0,West,4.6,-,N/A,,Mostly Cloudy,260,2013-08-26 10:56:00
7:56 AM,66.9,55.0,66,30.15,10.0,West,5.8,-,N/A,,Clear,260,2013-08-26 11:56:00
8:56 AM,68.0,55.9,65,30.14,10.0,West,4.6,-,N/A,,Mostly Cloudy,270,2013-08-26 12:56:00
9:56 AM,71.1,57.0,61,30.13,10.0,Variable,3.5,-,N/A,,Mostly Cloudy,0,2013-08-26 13:56:00
10:56 AM,75.0,59.0,57,30.12,10.0,West,8.1,-,N/A,,Scattered Clouds,280,2013-08-26 14:56:00
11:56 AM,77.0,60.1,56,30.08,10.0,WSW,8.1,-,N/A,,Scattered Clouds,240,2013-08-26 15:56:00
12:56 PM,75.0,61.0,62,30.06,10.0,West,9.2,-,0.00,Rain,Light Rain,260,2013-08-26 16:56:00
1:56 PM,73.0,63.0,71,30.04,8.0,WSW,6.9,-,0.01,Rain,Light Rain,250,2013-08-26 17:56:00
2:56 PM,77.0,63.0,62,30.01,10.0,West,5.8,-,0.00,Rain,Light Rain,260,2013-08-26 18:56:00
3:56 PM,75.9,63.0,64,29.99,10.0,West,5.8,-,N/A,,Mostly Cloudy,260,2013-08-26 19:56:00
4:56 PM,77.0,63.0,62,29.96,10.0,WSW,8.1,-,N/A,,Mostly Cloudy,240,2013-08-26 20:56:00
5:56 PM,75.9,64.0,67,29.96,10.0,Variable,3.5,-,0.00,Rain,Light Rain,0,2013-08-26 21:56:00
6:56 PM,75.0,64.0,69,29.96,10.0,Calm,Calm,-,0.00,,Scattered Clouds,0,2013-08-26 22:56:00
7:56 PM,75.0,64.0,69,29.95,10.0,Calm,Calm,-,N/A,,Mostly Cloudy,0,2013-08-26 23:56:00
8:56 PM,75.0,64.9,71,29.94,10.0,Variable,3.5,-,N/A,,Mostly Cloudy,0,2013-08-27 00:56:00
9:15 PM,73.4,66.2,78,29.98,1.5,NNW,15.0,19.6,0.03,Rain,Heavy Rain,340,2013-08-27 01:15:00
9:56 PM,71.1,68.0,90,29.95,6.0,West,3.5,-,0.14,,Light Drizzle,260,2013-08-27 01:56:00
10:56 PM,71.1,68.0,90,29.93,5.0,WNW,4.6,-,0.03,,Light Drizzle,290,2013-08-27 02:56:00
11:56 PM,70.0,68.0,93,29.91,5.0,Calm,Calm,-,0.01,,Light Drizzle,0,2013-08-27 03:56:00